TimeCDT,TemperatureF,Dew PointF,Humidity,Sea Level PressureIn,VisibilityMPH,Wind Direction,Wind SpeedMPH,Gust SpeedMPH,PrecipitationIn,Events,Conditions,WindDirDegrees,DateUTC
12:15 AM,33.8,22.8,64,30.31,10.0,NE,3.5,-,N/A,,Overcast,50,2013-03-29 05:15:00
12:35 AM,34.3,23.4,64,30.31,10.0,Calm,Calm,-,N/A,,Overcast,0,2013-03-29 05:35:00
12:55 AM,32.5,23.4,69,30.30,10.0,ENE,5.8,-,N/A,,Mostly Cloudy,60,2013-03-29 05:55:00
1:15 AM,34.7,23.7,64,30.31,10.0,Calm,Calm,-,N/A,,Overcast,0,2013-03-29 06:15:00
1:35 AM,34.7,23.5,64,30.31,10.0,Calm,Calm,-,N/A,,Overcast,0,2013-03-29 06:35:00
1:55 AM,34.3,25.0,69,30.31,10.0,Calm,Calm,-,N/A,,Overcast,0,2013-03-29 06:55:00
2:15 AM,35.8,21.2,55,30.30,10.0,ESE,3.5,-,N/A,,Overcast,110,2013-03-29 07:15:00
2:35 AM,32.9,23.9,69,30.30,10.0,ENE,3.5,-,N/A,,Mostly Cloudy,70,2013-03-29 07:35:00
2:55 AM,32.2,24.6,74,30.29,10.0,East,3.5,-,N/A,,Overcast,80,2013-03-29 07:55:00
3:15 AM,33.3,23.4,67,30.29,10.0,Calm,Calm,-,N/A,,Overcast,0,2013-03-29 08:15:00
3:35 AM,32.7,23.0,67,30.29,10.0,NE,3.5,-,N/A,,Scattered Clouds,50,2013-03-29 08:35:00
3:55 AM,32.0,22.8,69,30.29,10.0,ENE,3.5,-,N/A,,Clear,60,2013-03-29 08:55:00
4:15 AM,31.8,23.9,73,30.29,10.0,NE,3.5,-,N/A,,Mostly Cloudy,50,2013-03-29 09:15:00
4:35 AM,32.2,23.9,72,30.29,10.0,Calm,Calm,-,N/A,,Overcast,0,2013-03-29 09:35:00
4:55 AM,32.0,23.4,70,30.29,10.0,Calm,Calm,-,N/A,,Overcast,0,2013-03-29 09:55:00
5:15 AM,32.5,23.0,68,30.29,10.0,Calm,Calm,-,N/A,,Overcast,0,2013-03-29 10:15:00
5:35 AM,31.6,23.9,73,30.29,10.0,Calm,Calm,-,N/A,,Mostly Cloudy,0,2013-03-29 10:35:00
5:55 AM,32.4,23.0,68,30.29,10.0,Calm,Calm,-,N/A,,Clear,0,2013-03-29 10:55:00
6:15 AM,32.9,22.5,65,30.29,10.0,Calm,Calm,-,N/A,,Clear,0,2013-03-29 11:15:00
6:35 AM,31.6,23.0,70,30.29,10.0,Calm,Calm,-,N/A,,Clear,0,2013-03-29 11:35:00
6:55 AM,32.4,23.5,70,30.30,10.0,Calm,Calm,-,N/A,,Clear,0,2013-03-29 11:55:00
7:15 AM,32.0,23.5,71,30.31,10.0,Calm,Calm,-,N/A,,Clear,0,2013-03-29 12:15:00
7:35 AM,33.1,24.8,72,30.31,10.0,Calm,Calm,-,N/A,,Clear,0,2013-03-29 12:35:00
7:55 AM,34.3,27.7,77,30.31,10.0,Calm,Calm,-,N/A,,Clear,0,2013-03-29 12:55:00
8:15 AM,36.5,26.2,66,30.31,10.0,Calm,Calm,-,N/A,,Mostly Cloudy,0,2013-03-29 13:15:00
8:35 AM,38.7,28.4,67,30.31,10.0,Calm,Calm,-,N/A,,Scattered Clouds,0,2013-03-29 13:35:00
8:55 AM,42.6,23.9,48,30.32,10.0,Calm,Calm,-,N/A,,Mostly Cloudy,0,2013-03-29 13:55:00
9:15 AM,43.2,23.9,47,30.32,10.0,Calm,Calm,-,N/A,,Overcast,0,2013-03-29 14:15:00
9:35 AM,44.4,21.0,39,30.32,10.0,Calm,Calm,-,N/A,,Overcast,0,2013-03-29 14:35:00
9:55 AM,45.0,19.2,36,30.32,10.0,Calm,Calm,-,N/A,,Overcast,0,2013-03-29 14:55:00
10:15 AM,45.7,20.1,36,30.32,10.0,Calm,Calm,-,N/A,,Overcast,0,2013-03-29 15:15:00
10:35 AM,46.6,18.3,32,30.32,10.0,Calm,Calm,-,N/A,,Overcast,0,2013-03-29 15:35:00
10:55 AM,47.3,20.1,34,30.32,10.0,Calm,Calm,-,N/A,,Overcast,0,2013-03-29 15:55:00
11:15 AM,47.7,22.5,37,30.32,10.0,Calm,Calm,-,N/A,,Overcast,0,2013-03-29 16:15:00
11:35 AM,48.2,21.6,35,30.31,10.0,Calm,Calm,-,N/A,,Scattered Clouds,0,2013-03-29 16:35:00
11:55 AM,49.3,23.0,36,30.30,10.0,NW,5.8,-,N/A,,Clear,310,2013-03-29 16:55:00
12:15 PM,49.1,20.7,33,30.30,10.0,Calm,Calm,-,N/A,,Clear,0,2013-03-29 17:15:00
12:35 PM,50.0,20.5,31,30.29,10.0,SW,3.5,-,N/A,,Clear,230,2013-03-29 17:35:00
12:55 PM,50.7,21.4,32,30.29,10.0,West,4.6,-,N/A,,Clear,270,2013-03-29 17:55:00
1:15 PM,52.0,22.3,31,30.28,10.0,West,5.8,-,N/A,,Clear,270,2013-03-29 18:15:00
1:35 PM,51.8,21.2,30,30.27,10.0,NW,3.5,-,N/A,,Clear,310,2013-03-29 18:35:00
1:55 PM,52.7,22.3,31,30.26,10.0,West,6.9,-,N/A,,Clear,280,2013-03-29 18:55:00
2:15 PM,52.3,21.6,30,30.26,10.0,SW,3.5,-,N/A,,Clear,230,2013-03-29 19:15:00
2:35 PM,53.6,23.0,30,30.25,10.0,NNW,10.4,17.3,N/A,,Clear,330,2013-03-29 19:35:00
2:55 PM,53.4,22.6,30,30.24,10.0,West,5.8,-,N/A,,Clear,280,2013-03-29 19:55:00
3:15 PM,53.2,23.5,32,30.24,10.0,WNW,11.5,16.1,N/A,,Clear,290,2013-03-29 20:15:00
3:35 PM,53.2,22.6,30,30.23,10.0,Calm,Calm,-,N/A,,Clear,0,2013-03-29 20:35:00
3:55 PM,54.3,25.5,33,30.23,10.0,NW,6.9,-,N/A,,Clear,320,2013-03-29 20:55:00
4:15 PM,53.8,23.5,31,30.22,10.0,West,4.6,-,N/A,,Scattered Clouds,280,2013-03-29 21:15:00
4:35 PM,54.1,24.4,32,30.22,10.0,WNW,9.2,-,N/A,,Scattered Clouds,300,2013-03-29 21:35:00
4:55 PM,53.8,24.4,32,30.22,10.0,West,9.2,-,N/A,,Clear,280,2013-03-29 21:55:00
5:15 PM,53.6,24.3,32,30.22,10.0,West,9.2,-,N/A,,Clear,280,2013-03-29 22:15:00
5:35 PM,53.6,23.0,30,30.21,10.0,NW,8.1,17.3,N/A,,Clear,320,2013-03-29 22:35:00
5:55 PM,52.3,24.8,34,30.21,10.0,NW,6.9,-,N/A,,Clear,320,2013-03-29 22:55:00
6:15 PM,51.8,23.7,33,30.22,10.0,NW,6.9,-,N/A,,Clear,320,2013-03-29 23:15:00
6:35 PM,50.4,26.6,40,30.22,10.0,NW,4.6,-,N/A,,Clear,320,2013-03-29 23:35:00
6:55 PM,48.4,26.1,42,30.22,10.0,NNW,5.8,-,N/A,,Clear,340,2013-03-29 23:55:00
7:15 PM,46.6,20.8,36,30.22,10.0,East,10.4,-,N/A,,Clear,90,2013-03-30 00:15:00
7:35 PM,43.7,20.7,40,30.23,10.0,ENE,10.4,-,N/A,,Clear,70,2013-03-30 00:35:00
7:55 PM,43.7,19.9,39,30.23,10.0,East,9.2,-,N/A,,Clear,80,2013-03-30 00:55:00
8:15 PM,41.2,20.3,43,30.24,10.0,East,9.2,-,N/A,,Clear,80,2013-03-30 01:15:00
8:35 PM,41.0,19.4,42,30.24,10.0,East,9.2,-,N/A,,Clear,80,2013-03-30 01:35:00
8:55 PM,40.3,19.4,43,30.24,10.0,East,8.1,-,N/A,,Clear,80,2013-03-30 01:55:00
9:15 PM,40.1,19.4,43,30.25,10.0,East,6.9,-,N/A,,Clear,80,2013-03-30 02:15:00
9:35 PM,39.6,19.2,44,30.25,10.0,East,6.9,-,N/A,,Clear,80,2013-03-30 02:35:00
9:55 PM,38.3,19.6,47,30.25,10.0,East,5.8,-,N/A,,Clear,90,2013-03-30 02:55:00
10:15 PM,38.3,19.4,47,30.25,10.0,East,6.9,-,N/A,,Clear,90,2013-03-30 03:15:00
10:35 PM,37.2,19.2,48,30.25,10.0,East,6.9,-,N/A,,Clear,90,2013-03-30 03:35:00
10:55 PM,36.7,19.8,50,30.25,10.0,East,5.8,-,N/A,,Clear,90,2013-03-30 03:55:00
11:15 PM,36.5,19.6,50,30.24,10.0,East,5.8,-,N/A,,Clear,80,2013-03-30 04:15:00
11:35 PM,33.6,19.9,57,30.24,10.0,ENE,3.5,-,N/A,,Clear,60,2013-03-30 04:35:00
11:55 PM,32.9,19.8,59,30.24,10.0,NE,4.6,-,N/A,,Clear,50,2013-03-30 04:55:00